Regional Weather Roundup
Issued by NWS

Home | Current Version | Previous Version | Graphics & Text | Print | Product List | Glossary On
Versions: 1 2 3 4 5 6 7 8 9 10 11 12 13 14 15 16 17 18 19 20 21 22 23 24 25 26 27 28 29 30 31 32 33 34 35 36 37 38 39 40 41 42 43 44 45 46 47 48 49 50
000
ASUS45 KCYS 291210
RWRWY

WYOMING REGIONAL WEATHER ROUNDUP
NATIONAL WEATHER SERVICE CHEYENNE WY
600 AM MDT FRI AUG 29 2014

NOTE:  "FAIR" INDICATES FEW OR NO CLOUDS BELOW 12,000 FEET
WITH NO SIGNIFICANT WEATHER AND/OR OBSTRUCTIONS TO VISIBILITY.

WYZ001-291300-
YELLOWSTONE NATIONAL PARK

CITY           SKY/WX    TMP DP  RH WIND       PRES   REMARKS
LK YELLOWSTONE   N/A     43  41  93 CALM      30.30S
6HR MIN TEMP:  43; 6HR MAX TEMP:  48; 6HR PCP:  0.02;

W YELLOWSTONE  NOT AVBL

$$
WYZ002>013-054>058-071-098>099-291300-
NORTHERN WYOMING

CITY           SKY/WX    TMP DP  RH WIND       PRES   REMARKS
JACKSON        MOCLDY    45  43  93 N8        30.22R
CODY           CLOUDY    55  48  76 N8        30.13R
GREYBULL       CLOUDY    59  54  83 NW8       30.06R
6HR MIN TEMP:  59; 6HR MAX TEMP:  71; 6HR PCP: TRACE;

WORLAND        MOCLDY    56  51  84 SW6       30.08S
6HR MIN TEMP:  56; 6HR MAX TEMP:  69; 6HR PCP: TRACE;

SHERIDAN       CLOUDY    58  54  86 W8        30.06R
6HR MIN TEMP:  58; 6HR MAX TEMP:  68; 6HR PCP:  0.01;

BUFFALO        CLOUDY    59  49  69 N5        30.10F
6HR MIN TEMP:  59; 6HR MAX TEMP:  67; 6HR PCP:  0.01;

GILLETTE       CLOUDY    59  52  77 NW10      30.06R
6HR MIN TEMP:  57; 6HR MAX TEMP:  65; 6HR PCP: TRACE;

HULETT         PTSUNNY   63  52  67 MISG      30.05
NEWCASTLE      FAIR      59  48  67 NW9       30.02

$$
WYZ014>020-022>026-101>103-291300-
CENTRAL WYOMING

CITY           SKY/WX    TMP DP  RH WIND       PRES   REMARKS
BIG PINEY      CLEAR     43  40  89 E9        30.24R
6HR MIN TEMP:  42; 6HR MAX TEMP:  51;

PINEDALE       MOSUNNY   37  37 100 NW5       30.25S WCI  34
DUBOIS         FAIR      45  37  76 W15       30.23R
LANDER         PTCLDY    56  44  64 S3        30.16R
6HR MIN TEMP:  55; 6HR MAX TEMP:  67;

RIVERTON       PTCLDY    58  45  62 CALM      30.16R
6HR MIN TEMP:  57; 6HR MAX TEMP:  66;

CASPER         PTCLDY    57  44  62 CALM      30.11R
6HR MIN TEMP:  50; 6HR MAX TEMP:  58;

DOUGLAS        PTCLDY    50  48  93 N12       30.09R
6HR MIN TEMP:  49; 6HR MAX TEMP:  55;


$$
WYZ021-027>030-104>119-291300-
SOUTHERN WYOMING

CITY           SKY/WX    TMP DP  RH WIND       PRES   REMARKS
EVANSTON       CLEAR     48  38  68 S8        30.26S
6HR MIN TEMP:  48; 6HR MAX TEMP:  57;

KEMMERER       SUNNY     46  41  81 W3        30.26F
FORT BRIDGER   FAIR      57  36  45 W10       30.28S
ROCK SPRINGS   CLEAR     53  42  66 SW7       30.23S
6HR MIN TEMP:  52; 6HR MAX TEMP:  60;

DIXON          FAIR      48  46  91 E5        30.25S
RAWLINS        PTCLDY    55  44  66 W12       30.21R
6HR MIN TEMP:  55; 6HR MAX TEMP:  59;

SARATOGA       FAIR      50  43  76 S7        30.24R
LARAMIE        CLEAR     44  41  89 SE7       30.20S
6HR MIN TEMP:  43; 6HR MAX TEMP:  46;

CHEYENNE       CLEAR     52  41  66 W9        30.11S
6HR MIN TEMP:  50; 6HR MAX TEMP:  54;

TORRINGTON     CLEAR     50  49  96 W3        29.99S
6HR MIN TEMP:  49; 6HR MAX TEMP:  58;

PINE BLUFFS    FAIR      46  43  87 W3        30.07S

$$


USA.gov is the U.S. government's official web portal to all federal, state and local government web resources and services.